Wind_Speed
61 61 57 54 53 52 53 55 57 59 59 59 58 59 58 56 56 58 57 56 56 57 55 56 55 52 50 46 41 39 36 35 36 38 40 41 43 48 48 46 44 40 39 40 37 36 38 37 33 32 36 37 32 23 15 14 17 24 30 32 33 32 30 33 33 31 34 34 32 31 26 23 29 31 31 36 43 48 50 51 50 50 49 47 47 47
62 59 55 56 56 55 56 55 57 59 58 57 57 57 57 56 58 60 56 56 58 58 57 57 56 54 53 49 43 41 39 38 40 40 41 43 44 46 48 47 42 39 42 42 40 40 41 37 33 36 39 37 35 31 26 21 22 27 25 24 31 32 28 30 33 33 33 34 34 29 21 23 31 33 36 45 51 51 51 51 51 51 50 50 49 48
59 56 55 58 58 58 58 56 57 59 58 56 54 56 58 57 60 59 54 55 59 59 58 58 57 56 55 49 42 42 42 39 40 41 40 43 46 47 50 52 47 42 45 47 46 47 46 41 36 35 35 36 34 31 30 27 27 27 21 19 28 29 24 29 35 35 35 36 31 22 25 33 37 40 46 51 50 49 49 48 48 48 49 49 50 49
58 56 57 60 60 60 58 57 58 58 56 56 55 58 61 60 62 58 52 54 58 58 59 59 57 55 52 47 43 45 46 41 40 41 41 43 47 50 50 52 52 46 44 47 47 48 48 45 40 34 32 35 34 30 29 28 26 23 20 23 27 25 24 28 32 35 37 33 25 26 37 42 44 48 50 49 47 47 46 46 46 46 46 47 48 49
60 60 61 63 62 61 58 58 58 54 55 58 59 61 62 61 62 57 52 56 60 61 60 58 55 52 48 46 46 48 49 46 45 43 41 43 48 53 51 50 52 51 46 44 45 46 45 44 39 34 31 32 32 30 28 28 26 22 21 24 24 21 21 24 29 32 28 22 27 39 46 47 49 50 47 44 44 43 43 45 45 44 44 44 45 46
63 64 64 65 64 61 59 59 57 52 55 59 60 61 62 62 62 58 55 58 60 60 58 55 54 52 47 46 48 49 49 48 48 46 44 45 47 51 53 50 50 51 49 46 45 43 40 40 38 35 32 30 31 32 29 28 28 25 24 24 23 25 29 32 34 29 21 23 35 45 48 48 50 46 43 43 42 42 42 43 42 42 42 41 42 43
64 65 65 65 63 61 60 60 56 54 57 60 61 62 62 62 61 57 54 56 58 58 56 54 55 54 49 48 49 50 51 49 48 48 46 46 47 49 53 54 51 49 48 48 48 43 37 37 37 35 35 33 34 36 33 30 29 27 25 22 23 30 35 34 31 24 24 31 40 46 48 49 47 45 45 45 44 44 43 41 40 40 40 40 40 41
65 65 65 63 60 60 62 60 58 58 59 60 62 63 61 60 58 54 52 55 58 59 57 56 57 55 50 50 49 49 51 50 46 47 47 47 47 48 51 54 53 48 45 46 50 46 35 35 38 37 36 35 35 37 36 33 30 26 25 24 28 32 32 30 30 30 36 42 45 49 50 50 49 49 50 49 48 47 44 42 40 39 39 39 39 39
67 65 63 61 59 62 63 62 61 60 61 62 63 63 61 59 57 55 55 56 58 60 58 57 57 54 49 50 50 50 50 49 47 47 48 47 47 48 51 53 52 49 44 42 46 46 39 36 38 39 39 37 34 34 36 36 33 31 30 31 32 31 26 29 37 42 46 50 52 54 53 53 53 53 52 51 49 47 45 44 42 42 41 40 40 40
68 63 62 62 63 65 64 64 63 60 62 63 61 61 60 59 57 56 57 57 60 62 58 55 54 51 50 50 51 51 49 48 48 49 49 48 48 48 50 50 49 51 49 44 43 45 44 40 39 41 43 40 35 33 35 37 36 35 34 31 29 29 30 36 44 48 51 54 56 56 54 53 53 51 49 48 47 47 46 45 45 44 43 42 41 41
66 61 64 66 66 67 66 65 62 60 65 63 58 60 62 60 58 57 57 61 65 61 53 52 52 52 52 50 50 53 52 50 51 52 52 52 51 50 52 51 48 50 51 49 47 47 47 45 42 42 44 44 39 35 35 35 35 34 30 29 31 34 38 43 47 49 52 54 54 53 51 50 48 48 47 47 47 48 47 47 46 44 43 42 41 41
65 62 66 68 68 69 67 65 62 63 66 60 55 60 62 61 60 59 60 63 62 53 48 51 55 55 53 49 51 51 50 52 53 54 54 55 55 52 52 51 47 47 50 53 54 51 49 49 47 44 44 45 44 41 38 35 34 33 30 32 37 40 42 44 46 48 49 50 50 49 48 47 47 47 48 48 48 47 47 46 45 44 43 42 41 42
64 63 67 69 69 68 66 65 64 65 65 56 54 61 63 62 62 60 60 59 53 49 49 53 56 55 51 48 51 51 50 52 52 53 55 55 54 50 48 49 48 48 51 55 58 56 53 53 51 47 46 46 45 45 44 39 36 36 36 38 41 42 44 44 44 45 44 45 45 45 46 47 47 48 47 46 46 46 45 45 44 43 42 42 43 44
65 65 69 70 69 67 66 65 62 63 61 53 54 61 61 61 61 58 56 53 51 51 52 55 57 54 50 50 51 51 52 52 51 53 55 54 54 50 49 51 50 50 53 57 60 59 58 56 53 51 50 49 48 48 48 46 42 40 41 42 43 44 44 44 44 44 43 44 44 45 46 46 47 47 46 46 46 45 44 44 44 44 44 46 47 47
64 64 67 67 67 66 65 62 60 62 61 53 56 62 61 61 58 55 54 52 53 55 54 58 59 53 51 51 50 50 52 52 52 54 53 52 54 53 52 55 55 54 57 60 62 61 59 57 55 55 55 55 52 50 52 53 51 48 45 45 46 47 47 47 47 46 47 47 47 47 47 46 45 45 45 45 45 45 45 45 45 46 48 48 48 49
64 65 67 68 67 65 63 62 63 65 62 56 59 63 60 58 56 56 57 55 55 57 57 60 58 50 50 50 46 49 52 53 53 53 51 52 53 54 55 57 59 59 58 60 62 63 62 61 59 57 57 58 56 54 54 56 57 55 52 49 50 51 51 51 51 51 51 51 49 47 45 44 44 44 45 45 45 46 46 46 47 48 47 47 47 47
65 67 68 68 68 65 65 65 67 66 61 58 61 60 55 56 58 60 59 56 56 57 57 57 55 49 49 49 47 49 53 53 53 52 52 53 52 53 56 58 61 61 60 60 61 62 63 63 62 58 57 58 58 56 56 58 59 59 58 55 53 53 53 52 51 51 51 50 48 46 45 45 45 45 45 45 45 46 46 47 47 46 45 45 46 46
66 68 66 67 68 67 68 68 68 66 61 59 59 57 58 61 62 61 60 57 56 55 55 54 52 49 49 51 50 49 52 54 53 52 53 54 51 52 56 59 60 60 61 62 61 61 62 63 63 61 59 57 56 56 56 58 59 59 60 59 56 54 52 51 50 49 49 49 48 48 48 48 47 46 45 44 44 45 46 46 46 46 47 47 48 49
68 67 65 68 68 67 69 70 67 64 61 59 60 61 62 61 58 59 59 56 53 53 52 50 51 50 51 52 50 49 51 54 54 52 52 53 53 55 59 61 59 58 61 63 61 61 63 64 63 63 62 59 57 56 55 57 59 59 60 60 59 57 54 52 50 49 49 50 50 49 48 48 47 46 44 44 46 47 47 48 48 49 50 50 52 52
69 67 65 67 67 68 71 70 66 63 61 61 63 63 60 57 57 58 58 54 52 52 51 50 52 51 51 53 52 50 53 55 55 53 52 52 53 56 60 61 60 60 61 61 61 63 66 67 65 63 63 63 61 59 56 56 57 59 58 58 58 58 55 53 52 50 49 48 48 47 47 48 48 49 49 50 50 50 50 49 49 49 50 51 51 52
69 66 65 67 68 70 70 66 62 61 62 63 63 60 57 55 56 55 54 53 53 52 51 51 52 52 53 55 53 53 55 56 56 54 52 53 53 54 57 59 60 61 61 60 61 64 66 67 66 64 65 66 65 64 62 59 58 58 58 59 59 58 56 55 54 52 50 48 47 48 50 51 53 53 53 52 51 49 48 47 47 48 48 49 51 53
67 64 64 66 68 68 67 63 62 63 64 64 62 59 57 55 53 51 51 53 54 54 53 52 52 54 57 57 54 55 56 56 57 56 53 53 54 55 56 58 60 61 60 59 60 63 64 65 65 64 65 67 66 66 67 65 62 61 60 60 60 60 58 56 55 53 52 51 52 53 53 53 53 52 50 49 48 47 47 47 48 48 49 51 52 53
66 62 64 67 68 69 68 66 65 65 66 65 62 61 60 57 53 49 50 54 56 56 55 55 57 58 59 56 54 56 56 57 57 56 54 51 50 53 56 57 59 60 58 58 59 61 62 63 64 64 65 66 66 67 67 66 65 66 66 65 64 63 62 60 58 55 54 54 53 52 51 49 48 47 47 48 48 48 48 49 50 50 51 51 52 52
65 62 64 69 71 71 70 68 67 67 66 62 61 62 60 55 52 50 53 57 59 58 56 56 57 56 56 56 54 54 56 58 57 56 54 51 49 54 58 58 58 58 57 57 57 57 58 60 62 64 65 66 67 67 68 67 66 66 68 69 68 67 66 64 62 59 57 55 51 48 48 48 48 48 49 50 50 50 51 51 51 51 51 51 52 53
62 61 64 69 70 69 68 66 65 63 61 59 60 62 58 55 54 55 57 60 60 59 56 55 54 54 56 56 54 54 54 56 57 57 54 51 50 55 59 58 57 56 55 55 54 54 56 58 59 60 62 64 66 67 68 68 67 66 67 67 67 68 68 67 66 63 61 58 54 52 52 51 50 50 51 51 51 52 52 52 52 52 52 53 54 55
62 62 64 67 67 65 63 59 56 56 56 58 62 62 58 57 58 56 56 58 58 57 56 55 56 57 57 57 56 56 56 55 55 55 55 54 54 57 58 58 57 55 53 52 52 52 53 55 55 57 58 61 63 65 67 67 67 66 65 64 64 65 65 63 61 60 59 58 57 57 56 55 54 53 53 52 52 52 53 53 54 55 55 56 57 59
62 62 63 66 66 65 63 60 58 59 60 61 62 61 59 58 58 55 53 54 56 57 56 56 57 56 56 58 56 55 56 56 54 54 55 57 58 59 59 58 56 55 52 50 50 50 51 51 51 53 55 57 58 60 62 63 64 64 62 61 60 60 59 55 52 51 51 52 53 54 55 55 55 54 53 53 53 54 55 56 57 58 59 60 61 63
62 61 62 65 66 66 64 62 62 63 63 63 62 62 61 59 58 53 50 50 53 55 56 57 58 57 56 58 58 55 55 55 55 56 57 59 60 61 61 59 56 54 52 48 48 48 49 49 49 50 52 53 54 55 56 58 59 59 59 59 58 57 55 52 50 50 50 51 52 52 52 54 54 54 55 55 56 58 59 61 62 63 63 63 64 65
61 60 61 64 65 63 61 60 61 62 64 65 64 63 62 60 57 52 49 50 51 53 56 59 60 58 56 56 58 59 57 55 56 58 59 60 60 60 61 60 56 54 51 48 47 47 47 47 47 48 50 51 51 52 53 54 55 55 55 56 57 57 56 54 52 52 53 54 54 55 55 56 57 59 60 61 62 64 65 66 67 67 66 66 66 67
60 59 61 63 64 62 60 61 61 61 63 65 64 64 63 61 58 54 52 52 51 51 56 60 59 58 56 55 56 57 57 56 57 58 60 61 62 62 63 61 58 56 53 49 47 46 45 45 44 45 47 48 49 50 50 51 53 54 53 54 56 58 58 57 56 55 55 56 56 57 58 59 60 63 64 66 67 68 68 68 68 67 67 67 68 68
60 60 61 62 62 61 59 59 58 58 62 64 64 65 64 62 60 58 57 55 52 52 56 60 58 57 57 57 56 55 56 58 58 59 60 61 62 63 64 62 59 57 54 50 47 45 43 42 41 41 42 44 47 48 49 49 51 50 48 49 52 54 56 57 58 59 60 60 61 61 61 62 63 65 66 67 68 68 68 68 67 67 68 68 69 68
61 61 61 61 60 59 57 56 56 59 63 64 63 63 62 60 59 58 57 54 53 54 57 58 59 59 59 58 55 52 55 59 61 60 61 61 62 63 63 62 59 56 54 49 45 44 42 41 39 38 41 45 47 46 45 46 47 47 47 49 52 53 55 56 58 60 62 63 63 63 63 63 63 64 64 65 65 66 66 66 66 67 67 68 69 68
61 60 60 60 59 57 56 56 57 60 63 62 60 59 59 58 57 56 55 53 53 55 55 56 58 60 61 60 56 53 56 60 61 61 60 60 61 63 63 61 58 55 51 47 46 46 43 40 38 39 42 45 45 45 46 45 45 46 47 49 50 51 52 54 57 60 61 62 63 63 64 64 64 64 64 64 64 65 65 66 66 67 68 70 70 69
60 59 60 59 58 57 57 57 58 59 59 59 58 58 58 58 56 55 53 52 53 53 53 55 58 61 62 61 57 57 60 63 64 63 60 57 59 62 62 60 56 52 48 47 49 47 43 40 40 41 41 41 43 47 50 50 49 49 49 48 47 48 49 51 54 56 58 60 61 62 64 65 66 66 65 65 65 65 65 65 66 67 68 70 70 67
58 59 59 59 58 57 57 58 58 56 57 58 59 59 59 57 57 56 54 53 53 52 51 54 58 61 61 60 58 58 60 62 64 64 62 58 57 60 61 59 55 51 49 50 50 46 42 39 38 37 39 39 42 49 53 53 54 54 53 51 49 49 50 51 53 55 57 59 60 62 63 65 65 65 65 65 65 65 65 65 65 65 66 68 67 65
59 59 59 58 58 58 57 56 55 55 56 59 60 59 59 58 57 57 55 53 52 50 49 52 57 59 60 60 60 59 59 60 62 64 64 61 58 59 59 58 55 53 52 51 48 44 40 37 35 37 40 41 44 49 52 53 53 54 55 55 53 52 52 53 54 56 58 60 62 63 65 65 66 66 65 65 64 64 64 63 63 63 64 66 66 66
58 58 58 58 58 57 56 55 54 54 56 57 59 59 59 58 57 56 54 53 51 50 49 51 55 57 59 60 60 60 60 61 62 64 64 63 62 61 60 58 56 54 52 50 48 44 40 38 38 43 47 47 48 50 51 50 51 52 54 55 55 54 54 54 55 57 60 62 63 65 66 67 67 67 66 66 65 64 63 62 62 62 63 65 66 66
57 57 57 58 58 58 58 56 54 54 54 55 57 59 59 58 58 57 56 55 52 51 51 52 54 57 59 59 58 59 60 60 61 63 63 63 63 62 60 59 57 55 53 52 51 49 46 44 44 47 51 54 55 55 54 54 55 55 56 57 56 56 56 56 58 60 62 64 65 65 66 68 69 68 66 66 65 64 63 63 62 62 63 64 65 67
57 57 58 58 59 59 58 56 55 54 54 54 56 58 58 58 58 58 57 54 52 51 51 53 55 56 57 56 57 58 59 59 61 64 65 66 65 62 60 60 59 57 57 56 54 53 50 49 49 51 53 54 56 58 59 59 60 60 59 58 57 57 57 59 60 62 64 65 65 65 66 68 69 69 67 66 65 64 64 63 63 63 63 64 66 68
55 55 56 57 59 58 56 56 56 55 55 56 56 57 57 57 58 57 55 53 52 51 52 54 55 55 54 54 55 56 57 59 63 66 67 67 65 63 61 60 60 59 59 58 57 56 54 53 54 56 54 53 54 57 59 60 61 61 60 58 57 57 58 60 62 63 64 65 65 65 65 66 67 68 68 67 66 65 64 64 64 63 64 66 67 68
52 52 54 55 56 56 55 56 56 55 55 56 56 56 56 56 57 56 53 52 52 53 53 54 54 54 53 53 55 56 58 61 64 66 67 66 64 64 63 62 62 61 60 59 59 58 57 57 57 59 58 58 59 59 59 60 61 62 61 59 58 59 60 62 63 64 65 66 66 66 66 66 66 67 67 66 65 65 64 64 64 65 66 67 68 68
50 51 52 54 55 55 56 57 57 56 56 56 56 55 55 56 57 55 53 52 54 54 55 54 54 53 53 54 55 57 58 60 62 64 65 65 65 65 66 65 64 63 62 61 61 61 61 61 61 61 62 63 63 63 64 64 64 64 63 62 62 63 64 65 66 66 67 67 67 68 68 68 67 66 66 65 64 64 64 65 65 66 67 68 68 69
47 49 51 52 53 54 55 56 56 56 56 56 56 55 56 57 56 54 53 54 55 56 55 54 53 53 54 54 54 54 54 56 60 63 64 64 65 66 66 66 65 64 64 64 64 64 64 63 63 63 64 64 65 66 67 67 67 66 65 64 65 65 66 67 68 69 69 70 69 69 68 67 67 66 65 65 64 65 65 66 66 66 67 68 68 69
44 45 47 48 49 51 52 53 54 55 56 55 55 55 56 57 56 53 51 52 54 55 54 53 53 54 54 53 53 52 52 55 59 62 63 63 64 65 65 65 65 65 65 65 65 65 65 64 64 65 64 65 66 67 68 68 68 67 66 66 67 68 69 70 70 70 70 70 69 68 67 66 66 65 65 64 64 64 65 65 66 67 67 68 69 70
39 41 43 45 47 48 48 49 51 52 53 53 53 53 54 54 53 51 50 50 51 52 52 51 52 53 52 52 52 51 51 53 58 61 62 62 62 63 64 64 64 65 65 65 65 65 65 65 66 66 65 66 66 67 68 68 67 66 65 65 66 67 69 70 70 69 69 68 67 67 66 66 65 64 64 64 64 64 64 65 66 67 69 70 71 72
34 35 38 40 42 43 44 46 48 49 48 48 49 50 50 49 48 48 49 48 48 49 49 49 51 51 51 51 52 52 52 54 57 59 61 61 62 63 63 63 63 64 64 64 64 64 65 66 66 66 66 66 67 67 67 66 65 63 62 62 63 65 67 68 67 67 66 66 66 65 65 65 64 63 63 63 64 64 65 66 68 69 70 71 73 74
30 31 34 35 36 38 41 44 45 44 43 44 45 46 46 45 45 46 47 47 47 47 47 48 49 49 49 50 51 52 53 55 56 57 58 60 62 63 63 62 63 63 64 64 64 64 65 66 66 66 66 66 66 66 66 64 63 61 61 62 63 65 66 66 65 65 65 65 65 64 64 64 63 63 63 63 64 65 66 67 69 70 71 72 72 71
27 29 32 33 34 36 38 39 40 39 40 41 42 42 43 43 44 44 45 46 47 48 48 48 49 49 49 49 50 52 53 55 56 56 57 59 61 62 62 62 63 63 64 64 65 65 65 65 65 65 65 65 65 65 64 63 61 60 60 62 63 63 63 63 63 63 63 63 63 62 62 62 62 63 63 64 65 66 67 69 70 70 70 68 67 65
29 30 31 33 33 34 35 35 36 36 37 38 39 41 42 43 44 45 45 46 47 48 49 50 50 51 51 51 51 52 53 54 56 57 58 59 60 60 61 62 63 63 64 64 65 65 64 63 64 64 63 64 64 63 62 61 60 60 60 61 62 61 61 61 61 61 61 61 61 61 61 61 62 62 63 64 65 67 68 69 68 66 65 63 62 61
30 31 32 32 32 33 34 34 35 36 37 38 40 41 43 43 44 44 45 47 48 48 49 50 51 52 52 52 53 53 53 54 56 57 58 59 59 60 61 62 62 63 63 64 64 63 62 62 62 63 63 63 63 61 60 59 59 60 60 59 59 59 59 59 59 59 59 59 59 60 60 61 62 63 63 65 66 67 66 65 63 61 60 60 60 60
32 33 33 32 32 34 35 35 36 37 38 39 40 41 43 43 44 44 45 47 48 48 49 50 51 51 51 52 52 52 53 54 55 57 58 59 60 61 61 61 62 62 63 63 63 62 62 62 62 62 62 62 61 60 59 59 59 59 58 58 58 58 58 58 58 58 58 58 59 59 60 61 62 63 64 65 64 63 62 60 59 58 58 58 59 60
Wind_Direction
232 232 232 233 233 232 232 231 230 229 230 230 229 230 229 229 229 227 225 226 229 230 231 232 231 228 226 222 216 213 213 214 215 218 218 210 211 216 207 200 212 221 225 232 233 231 234 238 242 240 236 239 242 244 248 247 243 249 259 267 274 281 286 285 282 279 276 275 276 278 280 269 259 262 269 281 290 291 290 288 287 285 283 281 280 279
232 232 230 230 229 229 229 229 229 229 229 230 229 230 230 229 229 227 224 224 227 229 229 231 230 227 225 220 215 214 214 215 216 217 215 208 209 212 206 202 207 215 224 231 232 233 236 238 241 242 235 231 229 227 230 234 232 238 250 263 272 278 276 273 278 280 276 276 281 277 259 246 251 259 274 287 292 290 288 287 286 285 283 283 282 282
233 232 229 229 228 228 229 228 228 228 227 228 228 229 228 226 228 227 223 224 227 229 229 230 229 227 224 218 214 216 215 216 219 219 215 209 208 209 206 206 207 212 222 227 230 235 238 238 238 240 235 230 226 221 224 227 228 233 233 241 262 274 273 273 278 276 272 276 279 262 235 237 250 268 283 289 289 288 287 287 286 286 285 283 283 283
231 229 228 228 227 227 228 228 229 228 226 226 226 226 226 225 227 225 221 223 227 229 229 230 230 228 225 218 213 216 216 214 218 219 215 212 212 211 211 216 216 216 222 225 229 234 237 237 237 239 233 227 225 219 217 219 224 230 222 227 250 268 275 274 273 273 274 272 260 241 236 244 261 278 286 288 287 288 288 287 287 287 286 285 284 284
228 225 225 225 226 226 226 227 229 229 226 225 225 225 225 225 226 223 219 221 225 226 227 229 230 228 224 218 214 216 216 214 215 215 215 216 216 214 214 219 220 218 221 225 229 232 234 234 234 236 230 223 224 221 217 218 223 223 215 222 239 250 253 253 261 271 271 252 237 240 245 255 271 281 284 286 287 288 288 288 287 287 287 287 286 286
227 225 223 223 223 223 224 226 228 227 226 226 225 226 226 225 225 222 218 221 224 227 228 228 229 226 220 216 215 216 216 215 214 215 216 218 218 216 216 218 219 219 221 223 228 233 235 233 231 233 231 225 226 225 222 222 220 218 220 227 235 238 240 248 260 264 248 233 237 242 251 266 276 280 281 284 287 288 290 289 288 288 288 288 288 288
227 225 224 224 224 223 223 224 224 223 224 225 225 226 227 226 226 223 220 223 225 227 227 226 228 226 218 213 214 215 215 214 214 215 217 218 218 217 218 220 219 220 223 224 230 236 236 232 231 232 231 229 228 227 226 223 215 219 230 231 233 240 245 254 261 252 232 232 239 247 261 273 276 278 281 283 285 287 289 290 290 290 290 290 290 290
228 226 225 225 225 224 223 223 222 222 224 225 225 226 227 226 226 223 220 223 225 226 225 224 226 225 219 214 212 213 213 212 212 215 218 219 219 218 218 220 219 221 225 227 231 236 233 230 230 228 227 229 229 226 224 222 213 215 225 223 229 241 247 248 245 237 232 234 244 258 270 274 275 278 280 281 283 284 286 287 289 290 291 292 291 292
228 226 225 224 223 223 223 223 222 222 224 225 224 225 226 226 225 220 218 221 225 226 224 224 225 224 220 215 212 214 213 211 213 215 218 220 219 218 218 219 220 221 225 227 230 232 229 227 227 224 223 226 227 224 222 220 211 207 215 222 232 237 231 230 231 231 236 244 256 267 272 274 276 277 278 279 280 281 283 284 286 288 290 291 291 292
226 224 223 222 220 220 221 222 223 223 224 225 225 225 225 225 223 220 218 220 223 224 224 225 227 225 222 216 213 214 213 210 214 216 217 218 217 217 219 220 220 222 223 225 228 229 227 227 227 225 223 222 223 224 222 219 215 214 219 223 229 227 220 226 233 238 246 256 264 270 272 274 275 275 276 277 279 281 282 283 284 286 287 288 289 291
226 222 221 220 219 220 219 220 222 222 225 226 224 225 226 224 223 221 219 220 223 223 222 224 227 226 222 217 214 216 214 211 213 214 216 218 217 217 218 218 219 221 223 225 229 230 229 229 228 227 225 222 221 223 222 222 223 224 223 223 226 229 232 238 245 251 258 263 268 271 272 274 274 274 275 277 279 281 281 282 283 284 285 286 287 289
226 222 221 221 220 220 220 221 221 221 226 226 223 225 226 224 223 221 219 221 224 224 223 224 226 226 223 218 215 215 214 213 212 211 215 219 220 219 219 220 220 220 222 224 227 230 229 229 228 227 226 223 221 224 225 227 228 223 221 227 233 238 244 249 254 259 263 264 266 268 270 272 273 274 275 277 279 280 280 281 282 283 284 286 288 289
225 222 222 222 221 221 221 222 222 223 227 226 223 226 226 224 224 222 221 223 224 223 222 224 226 227 223 219 217 214 213 214 213 211 214 218 220 220 221 221 219 218 221 224 225 227 229 229 230 230 229 226 224 225 226 228 226 220 221 229 236 242 248 252 257 261 262 262 263 266 268 271 273 274 275 276 278 278 279 280 282 284 285 287 289 290
224 222 222 222 222 221 221 223 223 226 230 227 223 227 228 226 226 224 224 224 222 221 221 223 225 225 223 220 217 215 215 216 215 215 216 217 218 219 220 220 219 218 223 226 226 227 229 229 230 231 232 231 229 226 226 227 226 224 228 234 238 243 247 251 256 260 262 264 265 267 269 272 274 274 275 276 277 278 279 281 283 285 287 289 290 291
222 223 223 223 223 223 222 223 222 224 227 224 222 225 227 227 226 225 225 222 221 221 220 223 225 223 223 223 217 214 216 216 216 217 218 218 217 217 220 223 222 221 225 228 228 229 230 231 230 230 232 233 232 229 227 228 230 230 233 236 240 244 247 251 256 260 261 264 266 268 271 273 273 274 275 276 277 278 279 281 283 286 288 289 290 291
220 221 221 220 221 221 222 221 220 223 225 221 220 224 226 226 225 223 223 220 219 220 219 223 225 221 222 225 219 215 216 216 217 217 218 220 219 217 221 225 225 222 222 226 227 228 231 233 231 230 231 234 235 232 229 229 231 234 235 238 241 244 247 251 255 258 260 263 265 268 269 270 272 273 274 275 276 277 278 280 283 286 288 289 290 292
221 222 220 219 218 217 218 219 221 224 225 221 221 225 226 226 224 222 222 220 219 221 220 223 225 220 219 221 218 216 217 219 219 218 219 221 221 220 222 226 226 223 223 226 227 228 230 233 233 232 232 234 236 235 231 229 231 235 239 242 244 244 246 251 255 258 259 261 262 263 265 267 270 272 273 274 275 276 277 281 284 286 288 290 292 294
220 222 220 219 218 216 216 218 220 223 223 221 223 225 224 224 223 221 221 219 219 221 221 222 224 221 218 220 218 215 218 221 220 220 221 222 222 222 224 226 226 225 225 227 227 228 231 233 233 232 232 234 236 237 236 234 234 238 242 245 247 248 249 253 257 258 258 259 260 262 265 267 270 272 273 274 276 278 280 282 284 286 288 290 293 295
219 221 219 218 218 217 217 218 219 221 222 221 222 222 223 224 224 223 221 220 219 221 221 221 224 222 219 220 219 215 218 223 223 221 222 224 225 225 227 228 227 226 226 227 227 228 231 234 235 232 232 234 235 237 238 238 238 240 243 246 248 251 254 257 259 260 260 261 263 265 267 269 271 273 276 278 280 281 282 284 284 286 288 290 293 296
220 220 219 218 217 217 219 219 220 220 221 221 222 223 223 224 225 224 222 219 219 220 220 219 221 222 220 221 219 215 217 222 224 223 224 225 226 227 229 231 229 229 229 228 229 230 231 234 236 235 234 236 237 237 238 239 239 239 241 244 247 251 255 258 260 261 263 265 267 268 270 271 274 277 280 283 284 284 284 284 285 287 289 291 293 296
221 220 219 219 217 217 220 220 221 222 222 222 224 224 224 224 226 226 223 220 219 220 219 217 218 220 221 220 218 216 217 220 223 225 225 226 227 228 230 231 230 231 231 230 231 232 232 234 236 236 236 237 238 240 241 242 241 241 241 244 247 250 254 257 259 260 263 267 269 270 272 275 277 280 282 284 283 283 284 285 286 287 289 291 294 295
222 221 220 219 217 218 220 219 219 220 221 222 222 223 223 223 225 226 223 221 220 220 218 216 216 218 221 220 218 217 217 219 222 224 225 227 230 233 233 232 231 231 232 232 233 234 234 235 236 237 238 238 238 240 242 244 245 244 244 246 249 251 253 255 257 259 263 267 271 273 275 277 279 280 281 281 281 282 283 284 286 287 290 292 293 295
221 220 219 218 217 217 218 217 217 218 220 221 221 221 221 220 221 222 222 221 221 220 218 216 214 215 219 220 218 219 219 219 222 224 226 227 230 235 236 234 233 233 232 234 234 235 236 237 238 239 239 240 240 240 241 243 246 246 247 248 250 252 254 255 256 259 263 269 273 275 276 276 277 277 277 278 279 281 283 285 287 288 290 292 293 295
220 218 217 217 217 216 216 216 217 218 220 220 221 222 222 221 219 219 220 219 219 219 219 219 217 216 219 220 219 220 221 221 222 224 227 229 231 235 238 237 236 234 234 235 235 236 237 238 240 241 241 241 242 243 243 244 246 248 248 249 251 252 254 254 256 259 263 266 269 272 274 275 275 275 276 278 280 282 284 286 287 289 291 292 294 295
220 218 216 217 218 218 218 218 219 221 222 220 221 224 224 221 219 218 219 219 218 217 218 219 220 217 218 221 219 219 221 222 223 224 225 227 230 233 237 239 238 237 235 236 237 237 238 238 239 241 243 243 244 246 246 247 248 249 250 251 252 253 254 255 257 260 263 263 264 268 271 274 275 277 278 280 281 283 284 286 287 290 292 293 294 296
218 217 215 217 218 220 221 222 224 225 224 221 221 223 223 221 221 220 220 220 218 218 217 218 219 217 216 219 220 220 222 221 222 223 224 225 229 233 237 240 241 240 238 237 238 239 239 239 239 241 243 245 245 246 248 249 250 251 252 253 254 254 254 256 258 261 263 264 264 265 268 270 274 277 279 280 281 283 284 286 288 291 292 293 295 296
218 216 214 215 217 218 218 218 220 220 219 219 221 222 222 222 223 222 222 222 220 218 217 219 221 218 216 218 219 221 223 222 222 223 224 226 230 234 237 240 242 242 240 239 239 241 241 241 241 242 244 245 246 247 248 250 252 252 253 253 254 254 254 255 256 258 260 263 265 266 267 270 273 275 277 279 281 283 286 288 289 291 292 294 295 296
217 215 213 215 217 217 217 216 216 216 215 216 217 219 220 222 223 223 223 224 223 220 218 219 221 220 217 217 218 221 223 223 222 223 224 227 231 235 238 240 242 243 242 241 241 242 242 243 243 244 245 247 248 248 249 251 252 253 253 252 252 252 252 252 253 256 258 262 265 268 270 272 273 275 278 281 283 285 287 289 290 291 292 293 294 295
216 213 213 216 218 219 218 218 219 217 215 215 215 216 218 220 222 223 223 224 223 221 220 221 221 221 218 216 217 220 223 223 223 223 224 227 231 234 237 240 241 244 244 243 243 243 243 243 244 245 247 248 249 250 251 252 252 252 252 253 252 252 251 250 251 255 259 263 266 269 270 272 273 275 279 282 284 285 287 288 290 291 292 293 294 295
214 213 213 216 218 219 218 219 219 218 217 216 215 215 217 218 219 219 220 223 222 221 222 222 221 222 222 218 217 219 221 222 224 226 226 228 231 234 237 239 240 243 245 244 244 244 244 244 245 247 249 251 253 253 252 253 253 253 253 254 254 254 254 253 252 254 258 263 266 269 270 272 273 275 277 280 282 284 286 288 289 291 291 292 293 294
213 213 214 216 218 219 220 220 220 218 217 217 216 216 217 217 217 217 218 219 219 220 222 222 221 222 224 222 220 221 222 222 224 226 227 228 231 234 237 239 240 242 244 244 244 244 245 245 246 248 251 254 255 255 255 255 255 255 254 254 255 256 256 255 254 254 257 261 265 269 272 274 275 276 278 280 282 284 286 287 289 290 291 291 292 294
213 214 215 217 219 220 221 220 219 217 216 216 217 218 218 219 220 221 222 221 219 219 221 221 219 220 223 222 220 220 223 224 224 226 228 229 231 233 237 239 240 241 242 243 244 245 245 245 246 247 247 248 250 252 254 257 257 256 255 255 256 256 256 256 255 256 258 261 264 268 272 275 277 278 280 281 283 285 286 287 289 290 291 292 292 294
213 214 216 218 219 220 220 219 217 216 215 215 217 218 219 221 222 224 225 225 225 224 222 221 220 219 221 221 218 218 222 223 223 225 227 229 230 233 236 238 239 240 242 243 245 245 244 243 242 241 243 247 251 253 253 254 254 256 258 259 259 259 260 259 258 258 260 263 266 269 272 275 277 278 280 282 284 286 287 289 290 291 292 292 293 295
213 214 217 219 219 219 219 218 217 216 214 214 216 218 219 220 222 224 225 226 228 228 225 223 221 220 221 220 219 220 222 223 223 223 226 229 231 233 236 237 238 239 240 242 243 243 242 241 240 241 243 248 254 256 254 251 250 253 257 260 262 262 261 261 260 260 262 264 266 269 271 274 277 279 281 283 285 287 289 290 292 293 293 293 294 296
213 215 217 218 219 218 218 218 217 215 213 213 215 217 218 220 221 223 224 225 227 228 227 225 223 222 221 221 220 221 224 224 223 223 226 229 231 233 235 237 237 237 237 239 241 241 240 240 242 246 247 247 249 254 256 253 252 253 255 258 261 262 261 260 260 261 263 265 268 271 273 276 279 281 283 284 286 288 289 291 292 292 292 293 295 296
214 215 217 218 218 218 218 218 217 215 213 213 215 216 217 219 221 223 224 225 227 227 226 226 225 223 222 222 222 223 225 225 223 223 225 228 230 233 235 236 237 236 236 238 240 239 240 241 242 242 241 241 245 250 253 253 252 253 253 254 257 259 260 261 262 263 265 268 271 274 275 277 279 280 282 284 286 288 290 291 291 291 292 293 295 296
214 216 216 217 218 218 218 218 217 216 214 214 215 216 217 218 220 222 224 225 227 227 225 225 225 223 223 223 223 224 226 226 224 223 225 228 230 232 234 235 236 237 237 239 239 238 236 236 236 235 234 235 240 245 248 250 251 252 252 253 255 257 259 262 263 265 268 270 273 275 276 277 278 279 281 283 286 288 289 290 290 290 291 293 295 296
214 215 216 216 217 217 217 218 217 217 216 216 216 217 218 219 220 221 222 224 226 225 224 223 223 223 223 223 223 226 228 228 226 224 225 227 229 230 232 234 236 237 238 238 238 236 233 230 230 233 235 236 238 243 246 249 251 252 253 254 255 256 259 261 263 265 268 270 273 275 276 277 277 278 281 284 286 287 288 288 289 289 290 292 293 295
213 214 214 214 216 217 217 217 218 217 217 217 217 218 219 220 221 223 223 224 225 225 224 223 223 223 224 223 224 227 229 229 227 225 225 227 228 229 231 233 235 236 237 238 238 237 235 232 231 234 237 238 240 244 247 250 252 254 255 257 257 258 260 262 264 266 268 270 273 275 278 279 280 280 282 284 285 286 287 287 288 288 289 291 293 294
212 213 213 213 215 217 217 217 218 218 218 218 219 219 220 222 224 225 225 225 225 224 223 223 222 222 223 224 225 227 228 228 227 225 225 226 227 229 230 232 235 236 238 239 239 239 237 235 234 235 238 240 242 244 247 250 253 255 257 259 260 261 263 265 267 269 271 272 274 276 279 281 283 283 284 284 285 285 286 287 287 288 290 291 293 294
212 212 212 213 215 216 217 218 218 219 220 221 221 221 221 223 225 226 226 225 224 223 222 222 222 221 222 223 225 226 227 227 227 227 227 227 228 229 231 232 234 236 238 239 240 241 240 239 238 238 240 241 243 246 248 250 252 254 257 259 261 263 265 267 269 271 272 274 275 276 278 280 282 283 284 284 285 285 286 287 288 289 291 292 293 293
210 211 211 213 214 215 216 217 218 219 220 222 222 223 223 224 225 225 225 223 221 221 222 221 221 220 221 223 225 225 226 227 228 229 228 228 228 230 231 232 234 236 238 239 241 242 242 241 241 241 242 243 244 246 248 249 250 251 254 257 259 262 265 267 269 271 272 274 275 276 277 279 280 281 281 282 283 284 285 286 288 289 290 291 292 293
211 211 211 212 213 214 215 217 217 218 220 222 222 223 224 225 225 224 223 220 219 219 221 221 221 221 222 224 226 226 227 228 229 230 230 229 230 231 233 234 235 237 238 240 241 242 244 244 245 245 246 246 247 248 250 251 252 254 256 258 260 262 265 267 269 270 272 273 274 275 276 277 278 278 279 280 282 283 284 286 287 289 290 290 291 292
211 212 212 213 213 213 214 215 217 218 219 221 222 223 224 225 224 222 220 218 218 219 220 221 222 223 224 226 227 227 227 228 229 231 232 232 232 233 234 235 237 238 240 241 243 244 246 247 248 248 249 250 251 252 253 255 256 257 259 260 262 264 267 268 269 271 272 273 274 275 276 276 277 277 278 280 281 283 285 286 287 288 289 290 291 291
209 211 212 213 214 214 213 214 216 217 218 219 220 221 223 223 222 219 217 216 218 220 221 223 225 226 227 229 229 228 227 228 229 230 232 233 234 235 236 236 238 239 241 242 243 245 246 248 249 250 251 252 254 255 257 259 260 261 262 263 264 266 267 268 269 271 272 273 274 275 275 276 277 277 278 280 282 283 285 286 287 288 289 290 291 292
203 206 210 212 212 212 212 213 214 215 215 216 217 219 220 220 218 216 215 216 218 220 222 224 227 229 230 231 231 230 228 228 228 230 231 232 234 236 237 237 238 240 242 243 244 245 247 248 250 251 253 255 256 258 260 262 264 265 266 267 267 267 268 268 270 271 272 273 274 275 275 276 277 277 278 280 282 283 285 286 287 289 290 291 291 292
194 199 204 208 209 209 210 211 213 212 211 211 213 214 215 215 215 215 216 218 219 221 222 224 227 229 231 232 232 232 231 230 230 230 231 232 234 236 237 238 239 240 241 243 244 245 246 248 250 252 254 256 258 260 262 264 266 267 268 268 267 268 268 269 270 271 272 273 273 274 275 276 277 278 279 281 282 284 285 287 288 289 290 291 291 291
187 193 198 200 202 204 205 208 210 209 208 209 210 212 214 215 216 217 219 221 222 223 224 226 228 230 231 232 233 234 234 233 232 231 231 232 234 236 237 238 239 240 242 243 244 246 247 250 252 254 256 258 259 261 262 264 266 267 267 267 267 267 268 269 270 271 272 272 273 274 275 276 278 279 280 281 283 284 286 287 289 290 290 290 290 291
188 194 197 198 200 201 203 206 209 209 209 211 213 215 217 218 219 220 221 224 225 227 228 230 232 233 234 235 235 235 235 234 233 232 232 233 235 236 238 238 239 241 242 244 245 247 249 251 252 254 256 258 259 261 263 265 266 266 266 266 266 267 268 269 270 271 271 272 273 275 276 277 278 279 281 282 284 285 287 288 289 289 289 289 290 290
194 198 199 201 203 204 206 209 211 212 213 215 216 218 220 222 223 224 226 227 229 231 232 234 236 237 237 237 236 235 235 234 233 232 233 234 235 237 238 239 241 242 244 245 247 248 249 251 252 254 256 257 259 261 262 264 264 264 264 265 266 267 268 268 269 270 271 273 274 275 276 278 279 280 282 283 285 286 287 288 288 288 289 290 290 292
199 202 203 205 207 209 210 213 215 216 218 219 221 223 224 226 228 229 230 232 234 235 236 237 237 238 238 237 236 235 234 233 233 233 233 234 235 237 238 240 241 243 245 246 248 249 250 252 253 255 257 258 259 261 261 262 262 263 264 265 266 266 267 268 269 270 271 273 274 276 277 279 280 282 283 285 286 287 287 287 288 288 290 291 292 294
Height
10575 10578 10588 10595 10599 10602 10603 10606 10609 10611 10614 10619 10624 10627 10632 10638 10641 10645 10651 10657 10659 10662 10667 10669 10675 10683 10688 10696 10705 10709 10711 10711 10709 10710 10713 10716 10719 10722 10726 10728 10732 10738 10740 10739 10740 10741 10742 10743 10745 10745 10743 10743 10748 10755 10758 10759 10761 10759 10757 10756 10756 10760 10761 10758 10759 10763 10764 10766 10767 10765 10764 10763 10762 10761 10758 10757 10757 10757 10756 10756 10755 10754 10753 10753 10752 10752
10569 10576 10586 10589 10591 10594 10595 10599 10602 10605 10610 10614 10620 10624 10628 10633 10633 10637 10647 10652 10652 10656 10660 10663 10670 10676 10681 10692 10701 10705 10709 10710 10708 10709 10712 10715 10718 10721 10726 10728 10731 10736 10737 10736 10736 10735 10736 10739 10741 10739 10738 10739 10742 10748 10752 10752 10752 10752 10755 10756 10754 10756 10760 10758 10757 10759 10760 10761 10763 10763 10764 10762 10758 10757 10755 10754 10753 10753 10752 10751 10750 10749 10749 10748 10748 10747
10567 10576 10581 10581 10584 10586 10588 10593 10595 10599 10605 10610 10616 10618 10621 10625 10625 10632 10644 10647 10646 10651 10655 10658 10664 10668 10675 10689 10699 10701 10704 10706 10705 10706 10710 10713 10716 10719 10723 10724 10724 10728 10730 10730 10730 10728 10730 10733 10734 10733 10736 10739 10739 10743 10746 10744 10744 10747 10752 10755 10752 10753 10758 10758 10755 10755 10756 10758 10760 10760 10760 10758 10753 10752 10752 10750 10750 10748 10747 10746 10745 10745 10744 10744 10743 10743
10564 10571 10572 10573 10576 10579 10584 10589 10589 10595 10602 10606 10609 10610 10612 10617 10619 10628 10641 10643 10642 10646 10649 10652 10657 10664 10675 10688 10694 10694 10697 10702 10702 10704 10707 10710 10713 10715 10718 10719 10720 10722 10723 10724 10724 10724 10725 10727 10730 10731 10734 10736 10737 10741 10742 10742 10743 10746 10749 10750 10750 10753 10756 10755 10752 10751 10752 10755 10757 10756 10754 10751 10749 10749 10748 10746 10745 10744 10743 10742 10741 10740 10740 10739 10739 10738
10556 10559 10561 10564 10568 10574 10580 10582 10584 10593 10599 10600 10601 10602 10606 10611 10615 10626 10636 10634 10634 10637 10641 10647 10654 10663 10675 10684 10686 10687 10691 10696 10699 10702 10705 10706 10707 10709 10712 10713 10716 10718 10719 10719 10719 10719 10721 10723 10727 10730 10732 10734 10735 10738 10739 10739 10741 10743 10744 10746 10749 10752 10751 10750 10749 10749 10749 10750 10752 10749 10746 10745 10745 10745 10744 10742 10741 10740 10739 10738 10737 10736 10736 10735 10734 10733
10547 10549 10552 10556 10561 10569 10575 10576 10582 10590 10592 10592 10595 10597 10601 10606 10611 10621 10628 10628 10629 10633 10639 10647 10651 10658 10669 10676 10679 10682 10686 10691 10695 10698 10700 10700 10702 10704 10707 10708 10710 10713 10715 10715 10715 10716 10719 10722 10725 10728 10730 10732 10733 10734 10736 10736 10738 10739 10740 10745 10749 10748 10746 10746 10745 10746 10746 10747 10745 10741 10741 10741 10741 10740 10739 10738 10737 10737 10735 10734 10733 10732 10732 10731 10730 10729
10538 10542 10547 10551 10558 10566 10569 10571 10578 10583 10583 10585 10590 10592 10596 10602 10608 10619 10625 10626 10627 10630 10636 10643 10645 10651 10662 10668 10671 10675 10679 10685 10689 10692 10694 10695 10697 10700 10702 10703 10706 10710 10712 10713 10713 10714 10718 10720 10723 10725 10726 10728 10729 10730 10733 10733 10734 10734 10736 10742 10744 10742 10742 10741 10741 10743 10744 10743 10739 10736 10736 10737 10736 10736 10735 10734 10734 10733 10732 10731 10730 10728 10728 10727 10726 10725
10534 10538 10543 10549 10557 10562 10563 10567 10573 10576 10577 10580 10584 10587 10592 10599 10606 10617 10622 10621 10621 10624 10630 10636 10638 10645 10655 10661 10666 10668 10672 10679 10684 10687 10689 10690 10692 10695 10697 10699 10703 10708 10711 10711 10711 10713 10717 10718 10718 10720 10721 10723 10724 10727 10729 10729 10731 10731 10733 10736 10737 10737 10739 10738 10738 10740 10739 10736 10733 10731 10732 10731 10731 10731 10731 10730 10730 10729 10728 10727 10726 10725 10724 10723 10722 10721
10525 10532 10540 10547 10553 10555 10558 10563 10566 10569 10571 10573 10578 10582 10589 10595 10602 10610 10614 10615 10616 10618 10625 10630 10634 10642 10651 10658 10663 10664 10668 10675 10679 10682 10684 10686 10688 10690 10693 10697 10702 10706 10708 10709 10710 10711 10713 10713 10712 10715 10716 10718 10721 10723 10724 10725 10728 10728 10728 10730 10731 10733 10735 10734 10733 10733 10730 10729 10728 10727 10727 10727 10727 10727 10727 10726 10725 10724 10724 10723 10722 10721 10720 10719 10718 10717
10518 10530 10537 10540 10544 10547 10552 10555 10559 10565 10565 10567 10575 10581 10585 10591 10597 10603 10608 10610 10608 10611 10621 10628 10633 10640 10646 10652 10658 10661 10666 10672 10675 10676 10679 10681 10683 10688 10691 10693 10698 10702 10704 10707 10708 10707 10706 10707 10709 10711 10712 10715 10718 10721 10722 10724 10725 10723 10723 10726 10727 10728 10728 10727 10727 10726 10725 10725 10724 10723 10723 10723 10723 10723 10723 10722 10721 10720 10719 10718 10718 10717 10716 10715 10714 10713
10517 10527 10528 10531 10537 10540 10544 10549 10556 10561 10557 10562 10575 10578 10580 10586 10592 10598 10604 10602 10599 10609 10623 10627 10630 10635 10638 10647 10654 10656 10661 10666 10668 10672 10675 10676 10679 10685 10687 10690 10695 10699 10701 10704 10702 10700 10701 10703 10704 10706 10708 10712 10715 10718 10720 10721 10721 10719 10720 10722 10723 10722 10723 10723 10723 10723 10722 10720 10719 10719 10719 10719 10719 10718 10718 10717 10716 10715 10714 10714 10713 10712 10711 10710 10709 10709
10516 10522 10521 10525 10530 10533 10539 10545 10552 10553 10550 10562 10574 10571 10574 10581 10585 10592 10595 10594 10601 10616 10624 10623 10624 10626 10633 10643 10649 10650 10656 10660 10662 10667 10670 10671 10674 10680 10683 10687 10694 10698 10698 10698 10694 10694 10697 10698 10699 10702 10705 10708 10712 10714 10716 10718 10717 10716 10716 10716 10716 10717 10718 10718 10718 10717 10717 10716 10715 10715 10715 10714 10714 10714 10713 10712 10711 10710 10709 10708 10708 10707 10706 10705 10704 10704
10512 10516 10515 10518 10523 10529 10537 10542 10546 10546 10547 10563 10570 10565 10569 10575 10579 10587 10591 10597 10609 10617 10618 10617 10618 10622 10631 10640 10643 10646 10651 10654 10658 10662 10664 10667 10672 10677 10680 10683 10689 10693 10693 10689 10687 10690 10692 10692 10695 10700 10702 10705 10708 10710 10711 10713 10713 10712 10711 10710 10711 10711 10712 10712 10712 10712 10711 10711 10711 10710 10710 10709 10709 10709 10708 10707 10706 10705 10705 10704 10703 10702 10701 10700 10699 10698
10505 10507 10507 10512 10520 10527 10533 10538 10544 10545 10550 10564 10566 10561 10566 10572 10577 10587 10593 10601 10608 10609 10611 10611 10612 10619 10627 10632 10637 10642 10646 10649 10653 10656 10659 10664 10669 10674 10676 10678 10682 10685 10685 10682 10682 10685 10687 10689 10694 10697 10698 10699 10702 10704 10706 10707 10707 10707 10706 10705 10705 10706 10706 10707 10707 10707 10706 10706 10705 10705 10705 10705 10704 10704 10703 10702 10702 10701 10700 10699 10698 10697 10696 10695 10694 10693
10500 10502 10506 10512 10518 10525 10530 10537 10543 10542 10546 10559 10559 10556 10561 10567 10576 10586 10590 10596 10600 10601 10605 10604 10606 10617 10622 10625 10632 10638 10640 10644 10648 10651 10655 10659 10663 10668 10671 10671 10674 10677 10677 10677 10678 10680 10683 10686 10688 10690 10691 10692 10695 10698 10700 10700 10701 10701 10700 10700 10700 10700 10701 10701 10701 10701 10701 10700 10701 10700 10700 10700 10699 10699 10698 10698 10697 10696 10696 10695 10694 10693 10691 10690 10689 10688
10493 10495 10500 10506 10512 10520 10527 10533 10535 10533 10540 10551 10550 10549 10557 10566 10575 10579 10581 10587 10591 10594 10598 10598 10603 10615 10617 10621 10630 10634 10635 10638 10642 10647 10652 10654 10658 10664 10666 10664 10665 10669 10672 10672 10673 10676 10678 10678 10680 10684 10687 10688 10690 10692 10694 10695 10695 10694 10694 10694 10695 10696 10696 10696 10696 10696 10696 10696 10696 10695 10695 10694 10694 10694 10694 10693 10692 10692 10691 10690 10689 10688 10687 10685 10684 10683
10487 10487 10493 10499 10506 10515 10521 10524 10526 10529 10538 10545 10544 10550 10560 10563 10566 10569 10574 10582 10585 10589 10594 10597 10603 10611 10614 10619 10625 10628 10630 10633 10637 10643 10647 10649 10654 10659 10660 10657 10658 10663 10667 10666 10667 10671 10672 10673 10677 10681 10682 10683 10684 10686 10688 10690 10690 10689 10688 10689 10691 10692 10692 10692 10692 10692 10691 10691 10691 10690 10690 10690 10690 10689 10689 10688 10688 10687 10686 10685 10684 10683 10681 10680 10679 10679
10479 10481 10490 10496 10501 10509 10512 10515 10519 10525 10533 10540 10544 10551 10552 10550 10555 10563 10569 10576 10581 10586 10592 10596 10601 10608 10611 10614 10618 10624 10626 10628 10633 10638 10641 10645 10649 10652 10652 10649 10652 10659 10662 10660 10663 10667 10668 10668 10671 10674 10675 10677 10679 10680 10682 10684 10685 10684 10684 10686 10687 10687 10687 10687 10687 10687 10686 10686 10686 10686 10686 10685 10685 10684 10684 10683 10682 10682 10681 10679 10678 10677 10676 10675 10674 10674
10471 10476 10485 10489 10496 10503 10505 10508 10514 10522 10531 10537 10540 10541 10540 10545 10555 10561 10566 10574 10581 10585 10590 10596 10599 10602 10606 10609 10614 10621 10622 10623 10628 10633 10637 10639 10642 10644 10643 10643 10649 10655 10655 10655 10660 10663 10661 10659 10662 10667 10670 10672 10673 10674 10676 10678 10679 10679 10680 10681 10681 10681 10681 10681 10681 10681 10681 10681 10681 10681 10681 10680 10680 10679 10678 10678 10677 10676 10675 10673 10673 10672 10670 10670 10669 10668
10467 10473 10481 10485 10492 10497 10497 10503 10513 10521 10527 10530 10531 10533 10539 10548 10553 10557 10564 10573 10578 10581 10587 10592 10594 10598 10603 10605 10611 10616 10617 10619 10623 10628 10632 10633 10635 10636 10637 10639 10645 10648 10648 10652 10656 10656 10654 10654 10657 10662 10666 10667 10667 10669 10671 10672 10673 10674 10675 10676 10675 10674 10675 10675 10676 10676 10675 10675 10675 10675 10675 10675 10674 10674 10673 10673 10672 10670 10669 10667 10666 10665 10665 10664 10664 10663
10463 10470 10476 10480 10487 10490 10494 10505 10515 10519 10523 10525 10528 10534 10541 10546 10549 10555 10563 10570 10573 10577 10582 10587 10590 10595 10598 10600 10606 10611 10612 10615 10618 10622 10627 10628 10629 10631 10633 10637 10640 10641 10644 10649 10650 10649 10650 10651 10653 10658 10660 10661 10662 10664 10665 10666 10668 10669 10670 10670 10669 10668 10669 10671 10671 10671 10670 10670 10670 10670 10670 10670 10670 10669 10668 10667 10665 10664 10663 10662 10661 10660 10659 10659 10659 10658
10460 10468 10473 10477 10483 10489 10495 10505 10510 10513 10515 10520 10526 10532 10537 10541 10546 10554 10561 10565 10569 10573 10577 10582 10587 10590 10590 10594 10602 10605 10607 10611 10613 10616 10621 10624 10626 10628 10630 10632 10633 10635 10640 10643 10643 10644 10646 10648 10651 10654 10655 10656 10658 10659 10660 10661 10662 10664 10664 10663 10662 10663 10664 10666 10666 10666 10666 10665 10665 10665 10666 10666 10665 10664 10663 10661 10659 10658 10657 10656 10656 10655 10654 10654 10653 10652
10456 10464 10469 10472 10478 10484 10490 10496 10501 10505 10508 10515 10522 10527 10530 10537 10543 10551 10557 10560 10563 10567 10572 10576 10578 10580 10583 10590 10597 10600 10603 10605 10607 10612 10616 10620 10624 10625 10625 10626 10627 10631 10635 10637 10638 10641 10643 10646 10648 10649 10649 10651 10653 10654 10655 10656 10656 10658 10658 10657 10658 10658 10659 10661 10661 10662 10662 10661 10660 10661 10661 10661 10660 10659 10657 10655 10654 10653 10652 10651 10650 10650 10649 10649 10647 10646
10452 10459 10464 10466 10470 10476 10481 10488 10494 10498 10504 10513 10520 10523 10528 10536 10542 10546 10548 10550 10554 10560 10566 10569 10573 10578 10583 10587 10592 10596 10598 10601 10604 10609 10612 10616 10620 10619 10617 10619 10621 10625 10629 10631 10634 10638 10640 10642 10642 10643 10645 10647 10649 10649 10650 10650 10651 10652 10652 10653 10654 10654 10654 10656 10657 10657 10657 10657 10657 10656 10655 10655 10654 10653 10651 10650 10649 10648 10647 10646 10645 10644 10644 10643 10641 10639
10450 10456 10460 10461 10465 10472 10479 10486 10492 10498 10506 10515 10518 10520 10527 10533 10534 10536 10538 10541 10547 10554 10561 10566 10571 10576 10579 10582 10587 10591 10593 10596 10600 10604 10607 10612 10614 10611 10610 10613 10616 10620 10624 10627 10630 10633 10635 10635 10636 10638 10641 10643 10643 10644 10644 10645 10646 10647 10647 10649 10649 10648 10649 10651 10651 10651 10651 10652 10652 10651 10650 10649 10648 10647 10646 10645 10644 10643 10642 10641 10640 10639 10638 10637 10635 10634
10444 10450 10455 10458 10466 10475 10483 10491 10497 10503 10508 10511 10512 10515 10522 10526 10528 10532 10536 10540 10546 10552 10558 10562 10564 10568 10574 10577 10582 10586 10588 10591 10595 10600 10604 10607 10607 10605 10605 10607 10610 10614 10619 10622 10626 10628 10629 10630 10633 10635 10636 10636 10637 10638 10639 10640 10641 10642 10644 10644 10642 10641 10643 10645 10646 10646 10646 10646 10646 10646 10645 10644 10643 10642 10641 10640 10639 10638 10636 10635 10634 10634 10633 10631 10630 10628
10440 10446 10452 10457 10463 10470 10477 10484 10490 10494 10499 10503 10507 10512 10518 10522 10525 10530 10535 10539 10545 10549 10554 10557 10558 10563 10569 10573 10578 10582 10584 10587 10592 10596 10599 10600 10600 10600 10601 10603 10606 10609 10613 10618 10621 10622 10624 10626 10629 10630 10630 10631 10632 10634 10635 10635 10636 10637 10639 10637 10632 10633 10637 10639 10640 10641 10641 10641 10640 10640 10640 10639 10638 10637 10635 10634 10633 10632 10630 10629 10628 10628 10627 10626 10625 10623
10435 10444 10451 10454 10458 10463 10470 10476 10479 10484 10491 10496 10501 10507 10513 10517 10522 10528 10534 10537 10541 10545 10550 10552 10553 10559 10564 10568 10573 10576 10578 10583 10588 10590 10592 10594 10595 10595 10596 10599 10602 10604 10608 10613 10616 10617 10619 10622 10624 10625 10626 10627 10628 10630 10631 10631 10631 10632 10632 10629 10627 10628 10632 10634 10634 10635 10635 10635 10635 10635 10635 10634 10633 10631 10629 10628 10627 10625 10624 10623 10623 10622 10621 10621 10619 10617
10432 10442 10447 10450 10454 10460 10468 10473 10476 10481 10486 10489 10495 10501 10507 10512 10519 10526 10531 10532 10535 10541 10544 10545 10548 10554 10558 10563 10567 10569 10573 10579 10582 10584 10587 10589 10590 10590 10591 10594 10598 10601 10604 10608 10610 10612 10614 10617 10619 10621 10622 10623 10624 10625 10625 10625 10625 10625 10625 10624 10623 10624 10626 10628 10629 10630 10630 10630 10629 10629 10629 10628 10626 10625 10623 10622 10621 10620 10619 10618 10617 10617 10616 10614 10612 10611
10431 10438 10443 10446 10450 10457 10463 10467 10472 10478 10483 10487 10492 10497 10502 10507 10514 10520 10523 10525 10530 10536 10538 10539 10545 10550 10555 10559 10562 10564 10569 10574 10576 10579 10582 10584 10584 10585 10586 10589 10593 10596 10600 10603 10606 10608 10611 10613 10616 10617 10618 10619 10619 10619 10619 10618 10618 10620 10621 10619 10618 10620 10621 10623 10624 10625 10625 10625 10624 10623 10622 10622 10620 10619 10618 10616 10615 10615 10614 10613 10612 10610 10609 10608 10606 10605
10429 10434 10438 10442 10447 10453 10459 10463 10469 10476 10480 10484 10489 10493 10498 10503 10507 10512 10515 10518 10524 10529 10530 10534 10542 10547 10550 10553 10557 10562 10566 10568 10569 10571 10575 10578 10579 10579 10581 10584 10588 10592 10596 10599 10602 10605 10607 10610 10613 10616 10617 10616 10612 10610 10611 10612 10612 10615 10615 10614 10614 10616 10617 10618 10619 10619 10620 10619 10618 10617 10617 10616 10615 10613 10612 10611 10611 10610 10608 10607 10606 10604 10603 10601 10599 10599
10425 10430 10435 10439 10444 10450 10455 10461 10466 10470 10474 10479 10485 10491 10496 10501 10505 10509 10512 10515 10520 10522 10524 10529 10536 10540 10542 10546 10553 10559 10561 10560 10562 10565 10568 10572 10573 10574 10576 10579 10583 10587 10591 10596 10600 10602 10604 10606 10610 10613 10612 10607 10603 10603 10606 10607 10608 10609 10609 10609 10610 10612 10613 10614 10614 10614 10614 10614 10613 10612 10611 10610 10609 10607 10607 10606 10605 10604 10602 10601 10599 10598 10596 10593 10592 10592
10421 10427 10432 10436 10441 10447 10451 10456 10460 10463 10469 10478 10485 10490 10494 10498 10502 10506 10510 10514 10517 10518 10522 10526 10530 10533 10535 10540 10548 10552 10551 10552 10555 10558 10562 10566 10568 10569 10571 10575 10579 10584 10590 10595 10597 10596 10598 10602 10605 10605 10603 10601 10600 10601 10601 10602 10603 10604 10604 10604 10605 10607 10608 10609 10608 10608 10608 10608 10608 10608 10606 10604 10602 10602 10601 10600 10599 10598 10596 10594 10593 10591 10588 10585 10584 10585
10419 10424 10428 10432 10437 10442 10446 10450 10453 10459 10469 10477 10482 10485 10488 10493 10497 10501 10506 10510 10512 10515 10519 10522 10524 10527 10530 10536 10543 10544 10542 10544 10548 10553 10559 10563 10565 10566 10567 10571 10576 10582 10588 10590 10589 10590 10594 10597 10599 10600 10600 10602 10601 10597 10595 10597 10599 10599 10599 10600 10601 10603 10603 10603 10603 10603 10603 10603 10603 10602 10600 10598 10596 10595 10595 10594 10593 10592 10590 10588 10586 10584 10580 10577 10577 10577
10416 10420 10423 10428 10433 10437 10441 10445 10450 10459 10467 10472 10475 10479 10483 10488 10492 10495 10500 10503 10506 10510 10515 10517 10520 10523 10526 10532 10537 10537 10536 10539 10545 10552 10556 10559 10561 10562 10563 10566 10572 10578 10581 10581 10582 10587 10591 10594 10597 10599 10598 10600 10599 10592 10589 10591 10594 10594 10595 10596 10597 10597 10597 10598 10598 10598 10598 10598 10597 10596 10594 10592 10590 10589 10588 10587 10587 10586 10584 10582 10580 10577 10574 10570 10569 10569
10412 10416 10420 10424 10428 10433 10438 10443 10449 10457 10462 10466 10469 10474 10479 10482 10486 10490 10494 10498 10501 10505 10510 10512 10514 10518 10522 10526 10529 10531 10533 10537 10542 10547 10550 10553 10556 10557 10558 10562 10567 10571 10573 10576 10580 10585 10590 10593 10595 10594 10592 10592 10591 10585 10582 10585 10588 10589 10590 10591 10591 10592 10593 10593 10594 10593 10593 10592 10590 10589 10587 10586 10584 10583 10582 10582 10581 10580 10578 10576 10574 10571 10568 10565 10562 10562
10408 10412 10417 10421 10426 10431 10436 10441 10447 10453 10457 10462 10466 10470 10473 10477 10481 10486 10490 10493 10496 10501 10504 10506 10509 10512 10516 10519 10524 10527 10529 10532 10537 10542 10545 10548 10549 10551 10553 10557 10561 10565 10570 10573 10577 10581 10585 10586 10586 10584 10582 10582 10581 10578 10577 10579 10582 10583 10584 10585 10586 10588 10589 10589 10589 10588 10587 10585 10584 10583 10581 10579 10577 10576 10577 10576 10575 10574 10572 10570 10568 10565 10562 10559 10557 10555
10405 10410 10414 10419 10423 10428 10432 10437 10443 10448 10454 10459 10462 10465 10468 10473 10476 10479 10483 10487 10491 10495 10498 10500 10503 10506 10509 10514 10520 10523 10524 10528 10533 10537 10539 10540 10541 10545 10549 10552 10556 10560 10564 10567 10570 10573 10576 10577 10577 10576 10574 10574 10574 10573 10573 10575 10576 10577 10578 10580 10582 10584 10585 10585 10584 10583 10581 10580 10579 10577 10574 10571 10570 10571 10572 10571 10569 10568 10565 10563 10561 10559 10556 10554 10551 10549
10400 10405 10410 10415 10419 10423 10429 10435 10440 10445 10450 10454 10457 10460 10464 10468 10471 10474 10478 10483 10487 10491 10493 10496 10498 10501 10505 10512 10516 10517 10520 10524 10527 10528 10530 10531 10535 10540 10545 10547 10550 10554 10557 10559 10562 10566 10568 10570 10571 10569 10567 10568 10569 10569 10569 10569 10570 10571 10573 10575 10577 10579 10580 10579 10578 10577 10575 10574 10573 10571 10568 10565 10564 10565 10565 10565 10563 10561 10559 10557 10555 10553 10551 10548 10546 10543
10397 10402 10408 10413 10416 10421 10427 10433 10436 10441 10445 10448 10451 10455 10460 10464 10467 10470 10476 10480 10484 10486 10488 10490 10493 10497 10502 10508 10510 10513 10516 10517 10517 10518 10521 10525 10531 10537 10541 10543 10545 10547 10550 10553 10556 10559 10561 10564 10563 10562 10562 10564 10563 10562 10563 10563 10564 10565 10567 10570 10572 10574 10574 10573 10572 10570 10569 10568 10567 10565 10563 10561 10559 10558 10558 10558 10556 10555 10553 10551 10549 10547 10544 10542 10539 10537
10395 10401 10405 10409 10413 10419 10425 10429 10432 10437 10441 10444 10447 10452 10457 10460 10463 10467 10473 10477 10479 10480 10482 10485 10489 10494 10498 10502 10504 10506 10506 10507 10509 10513 10517 10523 10529 10533 10535 10537 10539 10541 10544 10547 10550 10552 10555 10557 10557 10557 10558 10558 10557 10557 10558 10558 10559 10560 10563 10565 10567 10568 10568 10567 10566 10564 10563 10562 10561 10559 10558 10556 10554 10553 10552 10551 10550 10548 10547 10545 10543 10541 10538 10536 10533 10530
10394 10398 10402 10406 10410 10416 10420 10424 10429 10434 10437 10439 10444 10449 10453 10455 10458 10463 10467 10470 10472 10474 10476 10480 10485 10489 10493 10495 10496 10498 10500 10503 10507 10509 10513 10519 10524 10526 10528 10531 10534 10537 10540 10543 10545 10546 10548 10549 10550 10551 10551 10551 10552 10553 10553 10553 10555 10557 10559 10561 10562 10562 10562 10560 10559 10558 10556 10555 10554 10553 10552 10551 10549 10548 10546 10545 10544 10542 10541 10539 10537 10535 10532 10529 10527 10524
10392 10395 10398 10402 10407 10411 10415 10420 10425 10429 10432 10435 10440 10444 10447 10450 10453 10457 10461 10463 10466 10468 10472 10477 10481 10484 10487 10489 10491 10495 10499 10502 10504 10505 10509 10515 10518 10520 10523 10527 10530 10533 10536 10537 10538 10539 10540 10542 10544 10544 10545 10546 10548 10548 10548 10549 10551 10553 10555 10557 10557 10556 10555 10554 10552 10551 10550 10549 10549 10548 10547 10545 10544 10542 10541 10540 10538 10536 10534 10532 10530 10528 10525 10523 10520 10517
10389 10393 10397 10401 10405 10408 10412 10417 10421 10424 10427 10431 10435 10439 10441 10444 10447 10451 10455 10459 10462 10465 10470 10474 10477 10480 10482 10484 10488 10492 10496 10498 10499 10500 10505 10510 10513 10515 10519 10523 10526 10528 10529 10531 10532 10533 10535 10537 10537 10538 10540 10541 10542 10542 10542 10544 10546 10548 10550 10551 10551 10550 10548 10546 10545 10544 10543 10543 10542 10542 10541 10540 10538 10537 10535 10534 10532 10530 10528 10526 10524 10521 10519 10516 10513 10510
10388 10392 10395 10399 10402 10406 10410 10414 10417 10419 10423 10428 10431 10433 10436 10439 10443 10448 10452 10456 10459 10463 10467 10471 10474 10476 10479 10481 10484 10488 10491 10493 10494 10495 10499 10505 10508 10510 10514 10518 10520 10521 10523 10525 10527 10529 10530 10530 10531 10532 10534 10535 10535 10535 10536 10538 10541 10543 10545 10545 10545 10543 10541 10539 10538 10538 10537 10537 10536 10535 10534 10533 10532 10530 10529 10527 10526 10524 10522 10519 10517 10515 10512 10509 10506 10503
10387 10391 10394 10397 10400 10405 10409 10411 10413 10416 10421 10425 10427 10430 10433 10437 10441 10445 10449 10453 10456 10460 10464 10468 10470 10472 10474 10477 10479 10482 10486 10488 10488 10490 10495 10500 10503 10504 10508 10511 10514 10516 10518 10519 10521 10523 10524 10524 10525 10527 10528 10529 10530 10530 10531 10533 10535 10537 10538 10538 10537 10535 10533 10532 10532 10531 10531 10530 10529 10528 10527 10526 10525 10524 10522 10521 10519 10517 10515 10513 10511 10508 10505 10502 10498 10495
10387 10390 10392 10396 10400 10403 10406 10408 10411 10415 10419 10422 10425 10428 10431 10435 10439 10443 10446 10450 10453 10457 10460 10463 10464 10466 10469 10472 10474 10477 10480 10483 10484 10487 10491 10495 10496 10498 10501 10505 10507 10509 10511 10513 10515 10516 10517 10518 10520 10522 10522 10523 10524 10525 10526 10527 10529 10531 10531 10530 10529 10527 10526 10526 10526 10525 10524 10524 10523 10522 10521 10520 10518 10517 10516 10515 10513 10511 10509 10506 10504 10501 10498 10494 10490 10487
10386 10388 10391 10395 10398 10401 10404 10407 10411 10415 10418 10421 10424 10427 10430 10433 10437 10440 10444 10446 10449 10453 10456 10458 10459 10461 10464 10467 10469 10472 10475 10478 10480 10483 10487 10489 10490 10492 10495 10499 10501 10502 10504 10506 10508 10509 10512 10514 10515 10516 10517 10518 10518 10519 10521 10522 10523 10524 10524 10522 10521 10520 10520 10520 10519 10519 10518 10517 10516 10515 10514 10513 10512 10511 10510 10508 10506 10504 10502 10499 10496 10493 10490 10486 10483 10480
10385 10388 10390 10393 10396 10400 10403 10407 10410 10414 10417 10420 10423 10425 10428 10431 10434 10437 10440 10443 10445 10448 10451 10453 10454 10457 10459 10462 10464 10467 10470 10473 10477 10479 10481 10483 10485 10487 10490 10492 10494 10496 10498 10499 10501 10503 10507 10509 10510 10511 10512 10512 10512 10514 10515 10516 10517 10517 10516 10515 10514 10514 10514 10514 10513 10512 10512 10511 10510 10509 10508 10507 10506 10505 10503 10502 10500 10497 10495 10492 10489 10486 10483 10480 10477 10473
10384 10387 10390 10393 10396 10399 10403 10405 10409 10412 10415 10417 10419 10422 10424 10427 10431 10434 10437 10439 10441 10444 10446 10448 10450 10452 10454 10456 10459 10461 10465 10468 10471 10473 10475 10478 10480 10482 10484 10486 10488 10490 10492 10493 10495 10498 10501 10503 10504 10505 10505 10505 10507 10508 10510 10510 10509 10509 10508 10508 10509 10508 10508 10507 10507 10506 10506 10505 10504 10503 10502 10501 10500 10498 10497 10495 10493 10490 10487 10485 10482 10479 10476 10473 10470 10467
10382 10384 10387 10391 10394 10397 10400 10402 10405 10408 10410 10413 10416 10418 10421 10424 10427 10430 10432 10434 10437 10439 10441 10442 10444 10446 10448 10450 10452 10456 10459 10462 10465 10467 10469 10471 10473 10475 10477 10480 10482 10484 10485 10487 10489 10492 10494 10496 10497 10498 10498 10499 10501 10502 10502 10502 10502 10502 10502 10503 10502 10502 10501 10501 10501 10500 10500 10499 10498 10497 10496 10495 10493 10492 10490 10488 10485 10483 10480 10477 10475 10472 10470 10467 10463 10460